| time (UTC) | temp F | wind direction | speed MPH | gust MPH | rain 1hr in | rain 24hr in | rain mn in | humidity % | barometer mb |
| 20260502151513 | 47 | 290 | 3.0 | 11.0 | 0.00 | 1.57 | 0.15 | 93 | 1012.8 |
| 20260502130114 | 46 | 306 | 4.0 | 10.0 | 0.00 | 1.61 | 0.15 | 99 | 1010.8 |
| 20260502123120 | 46 | 304 | 4.0 | 10.0 | 0.00 | 1.62 | 0.15 | 100 | 1010.5 |
| 20260502121651 | 46 | 295 | 5.0 | 12.0 | 0.00 | 1.62 | 0.15 | 100 | 1010.6 |
| 20260502114554 | 46 | 265 | 3.0 | 10.0 | 0.00 | 1.66 | 0.15 | 100 | 1010.4 |
| 20260502113046 | 46 | 63 | 1.0 | 3.0 | 0.00 | 1.66 | 0.15 | 100 | 1010.1 |
| 20260502111541 | 45 | 62 | 0.0 | 2.0 | 0.00 | 1.66 | 0.15 | 100 | 1010.1 |
| 20260502110046 | 44 | 62 | 0.0 | 1.0 | 0.00 | 1.66 | 0.15 | 100 | 1010.1 |
| 20260502104537 | 43 | 63 | 0.0 | 2.0 | 0.01 | 1.69 | 0.15 | 100 | 1010.0 |
| 20260502103035 | 43 | 62 | 0.0 | 0.0 | 0.01 | 1.69 | 0.15 | 100 | 1009.9 |
| 20260502101533 | 43 | 62 | 0.0 | 0.0 | 0.01 | 1.69 | 0.15 | 100 | 1009.7 |
| 20260502091528 | 42 | 62 | 0.0 | 0.0 | 0.00 | 1.68 | 0.14 | 100 | 1008.8 |
| 20260502071528 | 42 | 62 | 1.0 | 4.0 | 0.01 | 1.70 | 0.14 | 100 | 1008.2 |
| 20260502070025 | 42 | 65 | 1.0 | 4.0 | 0.02 | 1.70 | 0.14 | 100 | 1008.2 |
| 20260502064520 | 42 | 62 | 2.0 | 4.0 | 0.02 | 1.72 | 0.14 | 100 | 1008.1 |
| 20260502063020 | 42 | 78 | 2.0 | 4.0 | 0.02 | 1.72 | 0.14 | 100 | 1008.1 |
| 20260502061518 | 42 | 69 | 0.0 | 1.0 | 0.01 | 1.71 | 0.13 | 100 | 1008.0 |
| 20260502060018 | 42 | 69 | 0.0 | 3.0 | 0.01 | 1.70 | 0.12 | 100 | 1008.1 |
| 20260502054522 | 42 | 84 | 0.0 | 2.0 | 0.01 | 1.71 | 0.12 | 100 | 1008.1 |
| 20260502053017 | 42 | 85 | 2.0 | 6.0 | 0.01 | 1.71 | 0.12 | 100 | 1008.0 |
| 20260502051521 | 42 | 86 | 2.0 | 5.0 | 0.01 | 1.71 | 0.12 | 100 | 1008.1 |
| 20260502050030 | 42 | 122 | 3.0 | 7.0 | 0.01 | 1.70 | 0.11 | 100 | 1008.2 |
| 20260502044513 | 42 | 173 | 2.0 | 6.0 | 0.03 | 1.70 | 0.11 | 100 | 1008.2 |
| 20260502043012 | 42 | 154 | 3.0 | 7.0 | 0.06 | 1.70 | 0.11 | 100 | 1008.2 |
| 20260502041513 | 42 | 148 | 4.0 | 9.0 | 0.08 | 1.70 | 0.11 | 100 | 1008.4 |
| 20260502040012 | 42 | 120 | 3.0 | 10.0 | 0.10 | 1.69 | 0.10 | 99 | 1008.5 |
| 20260502034511 | 43 | 138 | 2.0 | 7.0 | 0.11 | 1.67 | 0.08 | 99 | 1008.7 |
| 20260502033010 | 43 | 143 | 2.0 | 9.0 | 0.09 | 1.64 | 0.05 | 99 | 1008.6 |
| 20260502031502 | 43 | 171 | 5.0 | 12.0 | 0.09 | 1.61 | 0.02 | 99 | 1008.7 |
| 20260502030058 | 43 | 192 | 5.0 | 10.0 | 0.11 | 1.59 | 0.00 | 99 | 1008.9 |
| 20260502024611 | 44 | 144 | 5.0 | 16.0 | 0.15 | 1.56 | 1.56 | 99 | 1008.9 |
| 20260502023057 | 44 | 165 | 5.0 | 10.0 | 0.23 | 1.55 | 1.55 | 99 | 1008.9 |
| 20260502021604 | 44 | 193 | 4.0 | 9.0 | 0.27 | 1.52 | 1.52 | 99 | 1008.7 |
| 20260502020056 | 45 | 198 | 5.0 | 14.0 | 0.27 | 1.48 | 1.48 | 99 | 1008.7 |
| 20260502014555 | 45 | 169 | 4.0 | 12.0 | 0.25 | 1.42 | 1.41 | 99 | 1008.8 |
| 20260502013054 | 46 | 136 | 4.0 | 10.0 | 0.20 | 1.33 | 1.32 | 100 | 1008.4 |
| 20260502011554 | 46 | 94 | 11.0 | 20.0 | 0.16 | 1.26 | 1.25 | 100 | 1008.2 |
| 20260502010100 | 47 | 119 | 6.0 | 23.0 | 0.16 | 1.22 | 1.21 | 100 | 1008.2 |
| 20260502004603 | 46 | 114 | 9.0 | 20.0 | 0.15 | 1.17 | 1.15 | 100 | 1008.1 |
| 20260502003051 | 46 | 106 | 6.0 | 19.0 | 0.15 | 1.12 | 1.12 | 100 | 1008.1 |
| 20260502001549 | 46 | 113 | 6.0 | 17.0 | 0.14 | 1.10 | 1.09 | 100 | 1008.2 |
| 20260502000050 | 46 | 111 | 7.0 | 17.0 | 0.12 | 1.06 | 1.05 | 100 | 1008.4 |
| 20260501234548 | 46 | 88 | 6.0 | 16.0 | 0.11 | 1.03 | 1.01 | 100 | 1008.4 |
| 20260501233050 | 46 | 91 | 7.0 | 18.0 | 0.12 | 0.99 | 0.97 | 100 | 1008.3 |
| 20260501231547 | 46 | 105 | 9.0 | 17.0 | 0.12 | 0.97 | 0.95 | 100 | 1008.3 |
| 20260501230046 | 46 | 81 | 4.0 | 16.0 | 0.12 | 0.94 | 0.92 | 100 | 1008.4 |
| 20260501224550 | 46 | 94 | 6.0 | 16.0 | 0.11 | 0.92 | 0.90 | 100 | 1008.3 |
| 20260501223044 | 45 | 97 | 8.0 | 14.0 | 0.08 | 0.87 | 0.85 | 100 | 1008.4 |
| 20260501221544 | 46 | 88 | 7.0 | 14.0 | 0.09 | 0.85 | 0.83 | 100 | 1008.5 |
| 20260501220042 | 46 | 106 | 8.0 | 16.0 | 0.13 | 0.82 | 0.80 | 100 | 1008.8 |
| 20260501214637 | 46 | 127 | 9.0 | 20.0 | 0.17 | 0.81 | 0.79 | 100 | 1008.8 |
| 20260501213046 | 45 | 83 | 4.0 | 13.0 | 0.21 | 0.79 | 0.77 | 100 | 1009.0 |
| 20260501211531 | 45 | 84 | 7.0 | 13.0 | 0.25 | 0.76 | 0.74 | 100 | 1008.8 |
| 20260501210039 | 45 | 96 | 8.0 | 13.0 | 0.23 | 0.69 | 0.67 | 100 | 1009.1 |
| 20260501204528 | 44 | 61 | 7.0 | 13.0 | 0.23 | 0.63 | 0.61 | 100 | 1009.3 |
| 20260501203028 | 44 | 43 | 6.0 | 12.0 | 0.21 | 0.57 | 0.56 | 100 | 1009.4 |
| 20260501201530 | 45 | 71 | 8.0 | 14.0 | 0.15 | 0.50 | 0.48 | 100 | 1009.7 |
| 20260501200022 | 45 | 80 | 7.0 | 13.0 | 0.15 | 0.46 | 0.44 | 100 | 1009.7 |
| 20260501194527 | 45 | 69 | 9.0 | 14.0 | 0.16 | 0.39 | 0.37 | 100 | 1010.1 |
| 20260501193024 | 45 | 62 | 8.0 | 13.0 | 0.14 | 0.36 | 0.34 | 100 | 1010.0 |
| 20260501191520 | 45 | 94 | 8.0 | 14.0 | 0.13 | 0.34 | 0.32 | 100 | 1010.2 |
| 20260501190018 | 45 | 75 | 7.0 | 12.0 | 0.10 | 0.31 | 0.28 | 100 | 1010.2 |
| 20260501184517 | 46 | 110 | 9.0 | 17.0 | 0.02 | 0.23 | 0.21 | 100 | 1010.3 |
| 20260501183015 | 46 | 103 | 8.0 | 16.0 | 0.01 | 0.22 | 0.20 | 100 | 1010.4 |
| 20260501181515 | 46 | 108 | 12.0 | 19.0 | 0.00 | 0.21 | 0.19 | 100 | 1010.6 |
| 20260501180013 | 47 | 107 | 12.0 | 20.0 | 0.00 | 0.21 | 0.19 | 100 | 1010.8 |
| 20260501174511 | 47 | 103 | 10.0 | 16.0 | 0.01 | 0.21 | 0.19 | 100 | 1010.9 |
| 20260501173010 | 47 | 120 | 6.0 | 14.0 | 0.01 | 0.21 | 0.19 | 100 | 1011.0 |
| 20260501171511 | 47 | 110 | 9.0 | 17.0 | 0.02 | 0.21 | 0.19 | 100 | 1011.1 |
| 20260501170007 | 47 | 123 | 7.0 | 17.0 | 0.02 | 0.21 | 0.19 | 100 | 1011.3 |
| 20260501164513 | 47 | 107 | 8.0 | 17.0 | 0.01 | 0.20 | 0.18 | 100 | 1011.4 |
| 20260501163005 | 47 | 151 | 6.0 | 17.0 | 0.01 | 0.20 | 0.18 | 100 | 1011.7 |
| 20260501161515 | 48 | 87 | 9.0 | 15.0 | 0.00 | 0.19 | 0.17 | 100 | 1011.7 |
| 20260501160001 | 47 | 79 | 7.0 | 18.0 | 0.00 | 0.19 | 0.17 | 100 | 1012.0 |
| 20260501154607 | 47 | 79 | 7.0 | 12.0 | 0.00 | 0.19 | 0.17 | 100 | 1012.0 |
| 20260501153057 | 46 | 86 | 6.0 | 9.0 | 0.00 | 0.19 | 0.17 | 100 | 1012.1 |